GW6580 Weather Reports


time (UTC)temp
F
wind
direction
speed
knots
gust
knots
rain 1hr
in
rain 24hr
in
rain mn
in
humidity
%
barometer
mb
20260906113024 71 214 0.0 0.0 0.00 0.00 0.00 93 1011.5
20260906111529 71 211 0.0 0.0 0.00 0.00 0.00 93 1011.4
20260906110007 71 211 0.0 0.0 0.00 0.00 0.00 92 1011.4
20260906104521 71 211 0.0 0.0 0.00 0.00 0.00 92 1011.3
20260906103017 72 211 0.0 0.0 0.00 0.00 0.00 92 1011.0
20260906101528 72 211 0.0 0.0 0.00 0.00 0.00 92 1010.9
20260906100028 72 211 0.0 0.0 0.00 0.00 0.00 92 1010.8
20260906094522 72 211 0.0 0.0 0.00 0.00 0.00 92 1010.8
20260906093027 72 211 0.0 0.0 0.00 0.00 0.00 91 1010.5
20260906091523 72 211 0.0 0.0 0.00 0.00 0.00 91 1010.3
20260906090028 72 211 0.0 0.0 0.00 0.00 0.00 91 1010.3
20260906084510 72 211 0.0 0.0 0.00 0.00 0.00 91 1010.4
20260906083017 72 211 0.0 0.0 0.00 0.00 0.00 90 1010.6
20260906081525 73 211 0.0 0.0 0.00 0.00 0.00 90 1010.4
20260906080031 73 211 0.0 1.7 0.00 0.00 0.00 90 1010.5
20260906074533 73 211 0.0 0.0 0.00 0.00 0.00 89 1010.6
20260906073011 73 211 0.0 0.0 0.00 0.00 0.00 89 1010.8
20260906071518 73 211 0.0 0.0 0.00 0.00 0.00 89 1011.0
20260906070025 73 211 0.0 0.0 0.00 0.00 0.00 88 1011.0
20260906064529 73 211 0.0 0.0 0.00 0.00 0.00 87 1011.2
20260906063029 74 211 0.0 0.0 0.00 0.00 0.00 87 1011.3
20260906061514 74 211 0.0 0.0 0.00 0.00 0.00 86 1011.4
20260906060032 74 212 0.0 1.7 0.00 0.00 0.00 86 1011.4
20260906054532 75 265 0.0 0.0 0.00 0.00 0.00 85 1011.3
20260906053030 75 265 0.0 1.7 0.00 0.00 0.00 84 1011.1
20260906051514 75 265 0.0 0.0 0.00 0.00 0.00 83 1011.4
20260906050022 76 265 0.0 0.0 0.00 0.00 0.00 82 1011.6
20260906044526 76 265 0.0 1.7 0.00 0.00 0.00 81 1011.8
20260906043030 77 265 0.0 0.9 0.00 0.00 0.00 80 1011.9
20260906041531 78 88 0.0 1.7 0.00 0.00 0.00 79 1012.1
20260906040019 78 53 0.0 1.7 0.00 0.00 0.00 79 1011.9
20260906034535 79 242 0.0 1.7 0.00 0.00 0.00 78 1011.8
20260906033029 79 250 0.0 1.7 0.00 0.00 0.00 77 1012.0
20260906031531 80 261 0.0 1.7 0.00 0.00 0.00 77 1012.0
20260906030032 80 291 0.0 0.9 0.00 0.00 0.00 77 1011.9
20260906024524 81 71 0.0 1.7 0.00 0.00 0.00 79 1011.7
20260906023027 81 68 0.0 1.7 0.00 0.00 0.00 80 1011.4
20260906021532 82 275 0.0 1.7 0.00 0.00 0.00 77 1011.1
20260906020039 82 340 0.0 1.7 0.00 0.00 0.00 77 1011.1
20260906014534 83 180 0.9 1.7 0.00 0.00 0.00 72 1010.4
20260906013027 83 321 0.0 2.6 0.00 0.00 0.00 71 1009.9
20260906011538 84 159 0.0 1.7 0.00 0.00 0.00 67 1009.5
20260906010034 84 336 0.0 1.7 0.00 0.00 0.00 67 1010.9
20260906004538 85 306 1.7 7.0 0.00 0.00 0.00 67 1011.5
20260906003044 86 295 0.9 2.6 0.00 0.00 0.00 81 1011.6
20260906001530 86 240 0.9 2.6 0.00 0.00 0.00 80 1011.3
20260906000031 87 190 0.9 1.7 0.00 0.00 0.00 78 1011.5
20260905234536 87 271 0.0 1.7 0.00 0.00 0.00 77 1011.6
20260905233033 88 186 0.0 1.7 0.00 0.00 0.00 76 1011.2
20260905231535 89 234 0.0 1.7 0.00 0.00 0.00 74 1011.4
20260905230032 90 159 0.0 2.6 0.00 0.00 0.00 72 1011.1
20260905224534 91 330 0.9 5.2 0.00 0.00 0.00 69 1011.0
20260905223036 93 94 0.9 3.5 0.00 0.00 0.00 67 1010.9
20260905221525 95 133 0.9 3.5 0.00 0.00 0.00 65 1010.5
20260905220027 96 105 0.9 2.6 0.00 0.00 0.00 55 1010.3
20260905214531 97 249 0.0 1.7 0.00 0.00 0.00 55 1010.3
20260905213041 98 269 0.9 2.6 0.00 0.00 0.00 54 1010.3
20260905211540 98 243 0.0 1.7 0.00 0.00 0.00 52 1010.3
20260905210028 99 230 0.0 1.7 0.00 0.00 0.00 50 1010.2
20260905204534 98 215 0.9 1.7 0.00 0.00 0.00 52 1010.1
20260905203035 98 290 0.0 1.7 0.00 0.00 0.00 54 1010.0
20260905201521 97 61 0.9 2.6 0.00 0.00 0.00 52 1010.1
20260905200026 98 91 0.0 3.5 0.00 0.00 0.00 54 1010.2
20260905194541 96 196 0.0 1.7 0.00 0.00 0.00 58 1010.3
20260905193008 97 116 0.9 1.7 0.00 0.00 0.00 56 1010.6
20260905191517 96 38 0.9 3.5 0.00 0.00 0.00 56 1010.7
20260905190026 95 291 0.9 4.3 0.00 0.00 0.00 58 1011.3
20260905184527 96 262 3.5 7.0 0.00 0.00 0.00 57 1011.6
20260905183035 94 270 2.6 4.3 0.00 0.00 0.00 61 1011.8
20260905181519 95 261 1.7 2.6 0.00 0.00 0.00 60 1012.1
20260905180021 94 261 0.9 3.5 0.00 0.00 0.00 61 1012.3
20260905174527 93 321 0.0 3.5 0.00 0.00 0.00 63 1012.4
20260905173033 94 327 0.9 5.2 0.00 0.00 0.00 62 1012.5
20260905171523 94 309 1.7 4.3 0.00 0.00 0.00 62 1012.9
20260905170017 93 345 0.9 5.2 0.00 0.00 0.00 66 1012.9
20260905164527 91 148 0.9 2.6 0.00 0.00 0.00 66 1013.2
20260905163029 91 298 1.7 4.3 0.00 0.00 0.00 67 1013.5
20260905161533 90 48 0.9 2.6 0.00 0.00 0.00 68 1013.8
20260905160034 90 309 0.0 2.6 0.00 0.00 0.00 70 1014.0
20260905154524 90 238 0.9 2.6 0.00 0.00 0.00 68 1014.2
20260905153036 90 286 1.7 6.1 0.00 0.00 0.00 68 1014.3
20260905151534 89 138 0.9 3.5 0.00 0.00 0.00 68 1014.4
20260905150036 89 331 1.7 4.3 0.00 0.00 0.00 71 1014.3
20260905144528 88 190 0.9 3.5 0.00 0.00 0.00 74 1014.6
20260905143035 87 225 0.9 3.5 0.00 0.00 0.00 75 1014.4
20260905141531 87 261 1.7 3.5 0.00 0.00 0.00 75 1014.4
20260905140034 86 234 0.9 3.5 0.00 0.00 0.00 80 1014.4
20260905134520 85 255 0.0 2.6 0.00 0.00 0.00 82 1014.5
20260905133024 84 209 0.0 1.7 0.00 0.00 0.00 84 1014.6
20260905131541 82 254 0.9 2.6 0.00 0.00 0.00 86 1014.7
20260905130033 81 276 0.0 2.6 0.00 0.00 0.00 90 1014.7
20260905124537 79 274 0.0 2.6 0.00 0.00 0.00 94 1014.5
20260905123018 78 282 0.0 1.7 0.00 0.00 0.00 95 1014.5
20260905121529 77 274 0.0 0.9 0.00 0.00 0.00 95 1014.5
20260905120031 76 275 0.0 0.0 0.00 0.00 0.00 95 1014.5
20260905114541 76 275 0.0 0.0 0.00 0.00 0.00 94 1014.4